Waarnemingen

Advertentie
Mijn weer
Hyeres, Frankrijk (7667): temperatuur & dauwpunt: 19.04.2018 02:00:00 - 25.04.2018 02:00:00 (CEST)Hyeres, Frankrijk (7667): temperatuur 5cm: 19.04.2018 02:00:00 - 25.04.2018 02:00:00 (CEST)Hyeres, Frankrijk (7667): windsnelheid & windstoten: 19.04.2018 02:00:00 - 25.04.2018 02:00:00 (CEST)Hyeres, Frankrijk (7667): windrichting: 19.04.2018 02:00:00 - 25.04.2018 02:00:00 (CEST)Hyeres, Frankrijk (7667): luchtdruk: 19.04.2018 02:00:00 - 25.04.2018 02:00:00 (CEST)Hyeres, Frankrijk (7667): zicht: 19.04.2018 02:00:00 - 25.04.2018 02:00:00 (CEST)Hyeres, Frankrijk (7667): neerslag: 19.04.2018 02:00:00 - 25.04.2018 02:00:00 (CEST)
Datum & Tijd tt [°C] td [°C] tt 5cm [°C] ff [km/u] ff [kn] fx [km/u] fx [kn] dd ppp [hPa] vv [km] rr [mm]
25.04.2018 02:00:00 12,2 11,6 7,9 5 3 6 4 NNO 1018,0 0,1 0,0
25.04.2018 01:00:00 13,2 12,6 9,0 4 2 7 4 N 1018,3 1,8 0,2
25.04.2018 00:00:00 13,3 12,4 9,3 7 4 8 5 N 1018,5 3,4 0,0
24.04.2018 23:00:00 14,4 12,9 9,1 2 1 4 2 WNW 1018,5 2,5 0,0
24.04.2018 22:00:00 16,0 14,5 11,1 3 2 13 7 ZO 1018,4 4,6 0,0
24.04.2018 21:00:00 16,7 14,9 14,3 7 4 13 7 ZO 1018,1 8 0,0
24.04.2018 20:00:00 17,7 14,2 16,9 7 4 18 10 ZZO 1017,7 13 0,0
24.04.2018 19:00:00 19,1 14,8 22,3 11 6 23 12 ZO 1017,7 13 0,0
24.04.2018 18:00:00 19,7 14,3 25,1 11 6 20 11 ZZO 1017,9 17 0,0
24.04.2018 17:00:00 19,6 14,6 26,1 13 7 21 11 ZO 1018,1 10 0,0
24.04.2018 16:00:00 19,3 15,0 21,7 15 8 23 12 ZZO 1018,5 10 0,0
24.04.2018 15:00:00 19,2 15,3 21,4 16 8 30 16 OZO 1018,9 12 0,0
24.04.2018 14:00:00 18,8 15,1 20,6 13 7 30 16 ZO 1019,0 11 0,0
24.04.2018 13:00:00 20,1 16,1 20,9 20 11 32 18 OZO 1018,9 13 0,0
24.04.2018 12:00:00 19,7 15,8 25,2 18 10 33 18 OZO 1018,9 13 0,0
24.04.2018 11:00:00 19,2 15,3 24,9 16 9 25 13 OZO 1018,8 13 0,0
24.04.2018 10:00:00 18,6 15,1 23,7 9 5 16 9 OZO 1018,5 12 0,0
24.04.2018 09:00:00 18,1 15,0 20,9 5 3 9 5 O 1018,0 12 0,0
24.04.2018 08:00:00 16,0 15,4 9,7 2 1 6 3 WNW 1017,6 3,6 0,0
24.04.2018 07:00:00 14,4 13,4 9,6 3 1 19 11 NNO 1016,9 1,2 0,0
24.04.2018 06:00:00 15,6 14,8 10,8 13 7 23 13 O 1016,7 4,8 0,0
24.04.2018 05:00:00 14,2 12,4 11,0 5 3 10 5 ONO 1016,6 9 0,0
24.04.2018 04:00:00 16,3 13,8 14,4 5 3 9 5 ONO 1016,4 12 0,0
24.04.2018 03:00:00 16,7 13,6 13,9 7 4 12 7 W 1016,7 11 0,0
24.04.2018 02:00:00 17,1 13,8 14,3 3 2 12 6 W 1017,1 15 0,0
24.04.2018 01:00:00 16,8 13,9 14,1 6 3 15 8 W 1017,5 14 0,0
24.04.2018 00:00:00 16,1 14,1 12,2 9 5 16 8 NW 1017,6 10 0,0
23.04.2018 23:00:00 16,4 14,4 14,1 6 4 22 12 NNW 1018,0 9 0,0
23.04.2018 22:00:00 16,7 14,5 15,3 11 6 28 15 WZW 1018,0 11 0,0
23.04.2018 21:00:00 16,7 14,5 15,3 9 5 34 19 WZW 1017,6 13 0,0
23.04.2018 20:00:00 17,0 15,0 16,2 13 7 37 20 ZW 1017,5 18 0,0
23.04.2018 19:00:00 18,1 15,5 18,1 22 12 31 17 ZW 1017,6 19 0,0
23.04.2018 18:00:00 18,3 15,0 18,7 18 10 30 16 ZW 1018,1 26 0,0
23.04.2018 17:00:00 19,6 14,6 24,4 14 8 27 15 ZW 1018,2 20 0,0
23.04.2018 16:00:00 19,9 14,7 21,5 19 11 35 19 ZW 1018,5 19 0,0
23.04.2018 15:00:00 20,0 13,9 22,1 23 12 39 21 ZW 1019,2 19 0,0
23.04.2018 14:00:00 19,7 14,5 24,1 24 13 37 20 ZW 1019,5 20 0,0
23.04.2018 13:00:00 19,7 14,5 23,8 23 13 35 19 ZW 1019,7 20 0,0
23.04.2018 12:00:00 19,6 13,5 24,4 21 11 30 16 ZW 1020,0 19 0,0
23.04.2018 11:00:00 19,8 13,0 23,1 16 9 24 13 ZZW 1019,8 20 0,0
23.04.2018 10:00:00 19,1 12,8 23,9 10 5 14 8 ZW 1019,6 20 0,0
23.04.2018 09:00:00 17,8 11,6 15,9 4 2 7 4 WZW 1019,5 20 0,0
23.04.2018 08:00:00 12,6 10,3 7,2 0 0 6 4 N 1019,1 14 0,0
23.04.2018 07:00:00 10,5 8,3 6,1 0 0 4 2 N 1018,7 18 0,0
23.04.2018 06:00:00 10,8 8,4 6,0 3 1 9 5 NNW 1018,3 20 0,0
23.04.2018 05:00:00 10,8 8,6 7,2 0 0 8 5 N 1018,4 19 0,0
23.04.2018 04:00:00 12,3 8,6 7,7 3 2 10 6 NNW 1018,7 25 0,0
23.04.2018 03:00:00 12,9 9,3 8,7 8 4 14 8 NNW 1018,8 26 0,0
23.04.2018 02:00:00 13,3 9,7 8,6 3 2 11 6 NW 1019,3 28 0,0
23.04.2018 01:00:00 14,8 10,4 8,8 7 4 10 5 WNW 1019,5 32 0,0
23.04.2018 00:00:00 16,2 9,8 9,4 0 0 10 5 N 1019,5 37 0,0
22.04.2018 23:00:00 15,1 9,9 9,5 2 1 7 4 W 1019,3 35 0,0
22.04.2018 22:00:00 16,8 10,4 12,7 2 1 13 7 WZW 1018,8 39 0,0
22.04.2018 21:00:00 18,1 10,7 15,2 5 3 19 10 ZW 1018,2 17 0,0
22.04.2018 20:00:00 18,8 10,9 16,8 13 7 20 11 ZZW 1017,7 48 0,0
22.04.2018 19:00:00 19,1 12,6 18,9 12 6 25 14 ZZW 1017,6 46 0,0
22.04.2018 18:00:00 20,3 13,3 22,1 15 8 29 16 ZW 1017,4 34 0,0
22.04.2018 17:00:00 20,6 12,6 21,9 21 11 32 17 ZW 1017,5 20 0,0
22.04.2018 16:00:00 21,9 13,5 26,4 14 8 32 17 ZW 1017,7 19 0,0
22.04.2018 15:00:00 21,7 13,1 26,0 24 13 45 25 ZW 1018,0 19 0,0
22.04.2018 14:00:00 22,1 12,6 27,3 20 11 33 18 ZW 1018,0 20 0,0
22.04.2018 13:00:00 22,1 13,2 27,6 16 9 29 16 ZZW 1018,3 19 0,0
22.04.2018 12:00:00 21,2 13,1 26,6 19 11 28 15 ZW 1018,5 20 0,0
22.04.2018 11:00:00 21,4 10,5 26,8 13 7 21 11 ZZW 1018,5 33 0,0
22.04.2018 10:00:00 20,9 11,2 26,0 7 4 12 6 ZZW 1018,3 60 0,0
22.04.2018 09:00:00 19,8 9,1 20,1 7 4 15 8 W 1018,1 20 0,0
22.04.2018 08:00:00 13,9 10,3 8,7 0 0 9 5 N 1017,9 22 0,0
22.04.2018 07:00:00 10,6 8,2 6,9 5 3 10 6 NO 1017,6 20 0,0
22.04.2018 06:00:00 11,3 8,2 7,0 3 1 7 4 NO 1017,5 26 0,0
22.04.2018 05:00:00 12,0 7,9 8,0 3 1 19 11 ONO 1017,6 29 0,0
22.04.2018 04:00:00 12,1 9,1 6,7 6 4 11 6 W 1017,7 26 0,0
22.04.2018 03:00:00 12,9 8,4 6,5 6 3 12 6 NW 1017,8 37 0,0
22.04.2018 02:00:00 12,8 9,8 6,9 4 2 9 5 W 1018,2 15 0,0
22.04.2018 01:00:00 12,6 10,3 7,6 0 0 7 4 N 1018,6 19 0,0
22.04.2018 00:00:00 14,1 11,8 9,4 2 1 11 6 NNO 1018,8 11 0,0
21.04.2018 23:00:00 14,9 12,6 9,1 3 1 7 4 NNO 1018,8 9 0,0
21.04.2018 22:00:00 16,2 13,9 10,8 3 2 5 3 O 1018,8 9 0,0
21.04.2018 21:00:00 17,5 13,2 12,3 3 2 12 6 ZZO 1018,4 13 0,0
21.04.2018 20:00:00 19,1 14,4 18,0 4 2 13 7 Z 1018,1 14 0,0
21.04.2018 19:00:00 23,3 12,3 26,0 5 3 20 11 Z 1018,2 19 0,0
21.04.2018 18:00:00 23,3 9,3 26,7 11 6 20 11 ZZW 1018,6 54 0,0
21.04.2018 17:00:00 23,2 8,1 26,7 16 9 27 15 ZW 1019,0 35 0,0
21.04.2018 16:00:00 22,3 9,1 27,2 19 10 26 14 ZW 1019,4 20 0,0
21.04.2018 15:00:00 22,5 12,1 28,0 14 8 23 12 ZZW 1019,8 20 0,0
21.04.2018 14:00:00 22,7 11,1 28,6 13 7 21 12 ZZW 1019,9 20 0,0
21.04.2018 13:00:00 24,0 11,3 30,9 7 4 14 8 Z 1020,2 48 0,0
21.04.2018 12:00:00 23,1 13,6 28,9 9 5 14 7 ZZO 1020,5 52 0,0
21.04.2018 11:00:00 22,3 12,0 28,1 5 3 11 6 ZO 1020,6 20 0,0
21.04.2018 10:00:00 20,7 12,9 24,3 5 3 13 7 Z 1020,2 23 0,0
21.04.2018 09:00:00 20,4 12,4 19,5 3 2 9 5 ONO 1020,2 20 0,0
21.04.2018 08:00:00 17,0 11,5 10,3 7 4 12 7 N 1019,9 30 0,0
21.04.2018 07:00:00 12,9 9,2 9,6 6 3 12 7 N 1019,5 31 0,0
21.04.2018 06:00:00 13,8 9,2 9,8 9 5 13 7 NNW 1019,3 37 0,0
21.04.2018 05:00:00 15,0 8,9 11,2 8 4 14 8 NNW 1019,6 35 0,0
21.04.2018 04:00:00 16,2 8,9 10,7 6 3 14 8 WNW 1019,9 39 0,0
21.04.2018 03:00:00 15,4 8,8 9,0 9 5 13 7 WNW 1020,1 41 0,0
21.04.2018 02:00:00 15,1 8,6 9,8 9 5 16 9 NW 1020,6 38 0,0
21.04.2018 01:00:00 15,5 9,2 8,3 13 7 16 9 NW 1020,9 34 0,0
21.04.2018 00:00:00 13,4 9,8 8,3 4 2 6 4 N 1021,3 21 0,0
20.04.2018 23:00:00 14,7 9,9 8,5 3 2 8 4 WNW 1021,4 20 0,0
20.04.2018 22:00:00 16,1 9,3 9,9 5 3 9 5 N 1021,4 23 0,0
20.04.2018 21:00:00 18,8 9,3 12,2 0 0 8 4 N 1021,2 17 0,0
20.04.2018 20:00:00 21,1 9,3 18,2 6 4 20 11 WNW 1021,0 37 0,0
20.04.2018 19:00:00 21,5 9,1 22,6 12 7 21 12 ZW 1021,3 32 0,0
20.04.2018 18:00:00 23,9 10,6 28,7 7 4 16 9 Z 1021,5 50 0,0
20.04.2018 17:00:00 24,1 8,1 29,9 11 6 16 8 Z 1021,7 37 0,0
20.04.2018 16:00:00 23,8 7,8 29,2 7 4 16 8 ZO 1022,3 41 0,0
20.04.2018 15:00:00 22,7 9,5 28,2 10 6 22 12 ZO 1022,9 20 0,0
20.04.2018 14:00:00 22,9 10,0 28,3 14 8 29 16 ZO 1023,4 45 0,0
20.04.2018 13:00:00 23,2 9,2 28,5 14 7 23 12 OZO 1023,9 47 0,0
20.04.2018 12:00:00 23,1 7,2 29,4 10 6 21 11 ZO 1024,1 19 0,0
20.04.2018 11:00:00 23,4 9,4 29,3 7 4 14 7 O 1024,1 44 0,0
20.04.2018 10:00:00 21,8 9,0 27,3 3 2 9 5 N 1024,0 37 0,0
20.04.2018 09:00:00 19,0 10,5 20,3 5 3 10 5 NW 1023,8 19 0,0
20.04.2018 08:00:00 15,8 9,7 9,2 4 2 9 5 N 1023,5 28 0,0
20.04.2018 07:00:00 12,3 7,6 8,0 5 3 9 5 NNW 1023,3 31 0,0
20.04.2018 06:00:00 11,3 7,6 8,1 5 3 12 7 N 1023,0 34 0,0
20.04.2018 05:00:00 12,4 7,5 8,1 8 4 11 6 N 1023,0 32 0,0
20.04.2018 04:00:00 12,2 7,3 8,0 10 5 14 8 NNW 1023,4 40 0,0
20.04.2018 03:00:00 12,7 7,8 8,2 5 3 16 8 N 1023,6 43 0,0
20.04.2018 02:00:00 12,3 8,0 8,3 7 4 11 6 NNW 1024,0 41 0,0
20.04.2018 01:00:00 13,0 8,5 8,2 7 4 11 6 N 1024,4 26 0,0
20.04.2018 00:00:00 13,2 9,3 8,4 5 3 8 5 NNW 1024,6 22 0,0
19.04.2018 23:00:00 13,7 8,9 9,2 3 2 10 6 NNO 1025,0 21 0,0
19.04.2018 22:00:00 15,3 9,2 10,1 4 2 6 3 NNW 1025,1 18 0,0
19.04.2018 21:00:00 16,9 9,3 11,6 5 3 8 4 NNO 1024,7 30 0,0
19.04.2018 20:00:00 19,1 9,6 16,0 5 3 11 6 O 1024,4 43 0,0
19.04.2018 19:00:00 20,3 9,5 21,4 8 4 16 9 O 1024,5 43 0,0
19.04.2018 18:00:00 21,5 8,7 24,5 10 5 17 9 O 1024,9 50 0,0
19.04.2018 17:00:00 21,9 9,1 26,3 10 6 25 13 O 1025,3 20 0,0
19.04.2018 16:00:00 22,7 8,8 27,2 14 8 30 16 O 1025,5 42 0,0
19.04.2018 15:00:00 22,2 9,0 27,1 20 11 33 18 OZO 1025,9 42 0,0
19.04.2018 14:00:00 22,1 10,3 27,1 20 11 34 18 OZO 1026,3 20 0,0
19.04.2018 13:00:00 22,2 8,7 26,5 20 11 29 16 OZO 1026,6 51 0,0
19.04.2018 12:00:00 22,1 8,9 26,8 16 9 27 15 O 1027,1 57 0,0
19.04.2018 11:00:00 22,1 9,9 27,1 10 5 18 10 O 1027,0 50 0,0
19.04.2018 10:00:00 22,6 10,1 25,7 2 1 8 4 NNO 1026,8 20 0,0
19.04.2018 09:00:00 19,0 11,8 18,7 5 3 8 5 NW 1026,4 19 0,0
19.04.2018 08:00:00 14,8 10,0 9,2 2 1 10 5 NNW 1026,3 34 0,0
19.04.2018 07:00:00 12,5 8,6 8,7 4 2 11 6 NNW 1025,9 40 0,0
19.04.2018 06:00:00 11,9 8,7 8,6 6 3 9 5 N 1025,8 41 0,0
19.04.2018 05:00:00 13,3 8,8 9,4 8 4 12 6 N 1025,9 47 0,0
19.04.2018 04:00:00 13,6 8,6 9,6 7 4 13 7 NNW 1026,2 49 0,0
19.04.2018 03:00:00 13,9 8,9 10,3 5 3 9 5 N 1026,6 46 0,0
19.04.2018 02:00:00 14,5 9,3 9,8 7 4 14 7 NNW 1026,9 50 0,0

tt = temperatuur
td = dauwpunt
tt 5cm = temperatuur 5cm
ff = windsnelheid
fx = windstoten
dd = windrichting
ppp = luchtdruk
vv = zicht
rr = neerslag

Weerstations in de omgeving